Temperature
20 20 20 20 24 24 23 22 23 22 22 21 21 21 22 21 21 19 17 16 16 16 16 16 16 16 16 16 16 16 16 16 16 16 16 16 17 17 17 17 17 17 17 17 17 17 17 17 17
20 21 20 22 25 24 22 23 22 22 21 21 21 21 21 20 19 18 17 16 16 16 16 15 16 16 16 16 16 16 16 16 16 16 16 16 16 16 17 17 17 17 17 17 17 17 17 17 17
21 21 22 24 24 24 22 23 22 21 21 21 21 20 20 19 18 17 16 16 16 16 15 16 16 16 16 16 16 16 16 16 16 16 16 16 16 16 16 16 16 16 17 17 17 17 17 17 17
20 21 23 25 23 23 23 23 22 22 21 21 21 20 19 18 18 17 16 16 16 16 16 15 16 16 16 16 16 16 16 16 16 16 16 16 16 16 16 16 16 16 16 17 17 17 17 17 17
21 23 24 24 23 23 23 22 22 22 22 21 21 20 19 17 17 17 16 16 16 16 16 15 16 16 16 16 16 16 16 16 16 16 16 16 16 16 16 16 16 16 16 16 16 17 17 17 17
22 24 24 23 22 23 23 22 22 22 22 21 21 20 19 17 17 17 16 16 16 16 16 16 16 16 16 16 16 15 15 16 16 16 16 16 16 16 16 16 16 16 16 16 16 16 17 17 17
23 24 24 23 22 22 23 22 22 22 22 21 20 20 19 18 17 17 17 16 16 16 16 16 16 16 16 16 16 15 15 15 16 16 16 16 16 16 16 16 16 16 16 16 16 16 16 16 16
22 25 24 23 23 22 22 22 21 22 21 20 20 21 20 18 17 17 17 17 17 16 16 16 16 16 16 16 16 16 15 15 15 16 16 16 16 16 16 15 16 16 16 16 16 16 16 16 16
22 24 24 23 23 22 22 22 21 21 20 20 20 20 19 18 17 17 17 17 17 17 16 16 16 16 16 16 16 15 16 16 16 15 16 15 15 15 15 15 16 16 16 16 16 16 16 16 16
24 24 23 23 23 23 22 22 22 21 21 21 19 18 18 18 18 18 18 18 17 17 17 17 16 16 16 16 15 15 15 15 15 15 15 15 15 15 15 16 16 16 16 16 16 16 16 16 15
24 23 23 23 23 23 22 22 22 22 22 21 20 19 18 18 18 18 18 18 18 17 17 17 17 16 16 16 16 15 15 15 15 15 15 15 15 15 15 15 15 15 15 15 15 15 15 15 15
23 23 23 23 22 22 22 22 22 21 21 20 20 19 18 18 18 18 18 18 18 17 17 17 17 17 17 16 16 16 16 16 16 15 15 15 15 15 15 15 15 15 15 15 15 15 15 15 15
24 23 22 22 22 22 22 22 22 20 20 19 19 19 19 19 18 18 18 18 18 17 17 17 17 17 17 16 16 16 16 16 16 16 15 15 15 15 15 15 15 15 15 15 15 15 15 15 15
23 23 22 22 22 22 22 22 21 20 19 19 19 19 19 18 18 18 18 18 18 18 17 17 17 16 16 16 16 16 16 16 16 16 16 16 15 15 15 15 15 15 15 15 15 15 15 15 15
23 23 23 23 23 22 23 22 22 20 20 19 19 19 18 18 18 18 18 18 18 18 17 17 17 16 16 16 16 16 16 16 16 16 16 16 15 15 15 15 15 15 15 15 15 15 15 15 15
24 24 23 23 23 22 23 22 21 20 20 20 19 19 18 18 18 18 18 18 18 18 17 17 16 16 16 16 16 16 16 16 16 16 15 16 16 15 15 15 15 15 15 15 15 15 15 15 15
24 24 23 23 23 23 23 22 22 20 20 20 20 19 19 18 18 18 18 18 18 17 17 17 16 16 16 16 16 16 16 16 16 15 15 15 15 15 15 15 15 15 15 15 15 15 14 14 14
23 24 23 23 23 23 23 22 22 21 20 20 20 20 19 19 18 18 17 17 17 17 17 17 16 16 16 16 16 16 16 16 15 15 15 15 15 15 15 15 15 15 15 15 14 14 14 14 14
24 24 23 23 23 23 23 22 22 21 21 20 20 20 19 19 18 18 17 17 17 17 17 17 17 16 16 16 16 16 15 15 15 15 15 15 15 15 15 15 15 15 15 14 14 14 14 14 14
24 23 23 23 23 23 23 22 22 21 21 20 20 20 20 19 19 18 17 17 17 17 17 17 16 16 16 16 16 15 15 15 15 15 15 15 15 15 15 15 15 15 15 14 14 14 14 14 14
23 23 23 23 23 23 23 23 22 22 21 20 20 20 20 19 19 18 18 17 17 17 17 16 16 16 16 16 15 15 15 15 15 15 15 15 15 15 15 15 15 15 14 14 14 14 14 14 14
23 23 23 23 23 23 23 22 23 22 21 21 20 20 19 19 18 18 18 17 17 17 17 16 16 16 16 16 16 16 15 16 15 15 15 15 15 15 15 15 15 15 14 14 14 14 14 14 14
23 22 23 23 23 23 23 23 23 22 22 21 21 20 19 18 18 18 18 17 17 17 17 16 16 16 16 16 16 15 15 15 15 15 15 15 15 15 15 15 15 15 14 14 14 14 14 14 14
22 23 23 23 23 22 23 23 22 22 22 22 21 20 19 19 18 18 17 17 17 17 17 16 16 16 16 16 16 16 15 15 15 15 15 15 15 15 15 15 15 15 15 14 14 14 14 14 14
23 23 23 23 23 23 22 22 22 22 22 21 21 20 20 19 18 18 17 17 17 17 17 16 16 16 16 16 16 16 15 15 15 15 15 15 15 15 15 15 15 15 15 14 14 14 14 14 14
23 23 23 22 22 23 22 22 22 22 21 20 20 20 19 19 18 18 17 17 17 17 17 17 16 16 16 16 16 16 16 15 15 15 15 15 15 15 15 15 15 15 15 15 14 14 14 14 14
23 23 23 23 23 22 23 23 22 22 21 21 20 20 19 18 18 17 17 17 17 17 17 16 16 16 16 16 16 16 16 15 15 15 15 15 15 15 15 15 15 15 15 15 14 14 14 14 14
23 23 22 22 22 22 22 22 22 22 21 21 20 20 19 18 18 17 17 17 17 17 17 17 16 16 16 16 16 16 16 16 15 15 15 15 15 15 15 15 15 15 15 15 15 14 14 14 14
22 22 22 23 22 22 22 22 23 22 22 21 20 19 19 18 18 17 17 17 17 17 17 17 16 16 16 16 16 16 16 16 15 15 15 15 15 15 15 15 15 15 14 14 14 14 14 14 14
22 22 23 22 22 22 22 22 23 22 21 21 20 19 18 18 17 17 17 17 17 17 17 17 16 16 16 16 16 16 16 16 15 15 15 15 15 15 15 15 15 15 14 14 14 14 14 14 14
Wind_Speed
2 1 2 2 2 4 7 6 6 6 5 6 7 6 7 8 6 6 4 4 5 5 5 6 6 7 7 8 9 9 9 10 10 10 10 10 10 10 9 9 9 9 10 10 10 9 9 9 9
0 1 2 1 1 5 7 6 8 8 6 5 6 7 8 8 7 6 5 5 5 5 5 7 7 6 7 8 9 9 10 10 10 11 11 10 10 10 10 9 9 9 9 9 9 9 9 9 9
1 2 1 1 5 6 7 6 8 7 6 3 4 6 6 6 6 5 6 5 5 6 5 7 6 7 8 8 9 10 10 10 10 10 10 10 10 10 9 9 9 9 9 9 9 9 9 9 9
2 1 1 4 10 9 7 7 6 6 6 6 4 6 7 6 5 7 7 5 6 6 6 8 7 8 9 9 9 9 10 10 10 9 9 10 10 10 9 9 9 9 9 9 9 9 10 9 9
1 0 4 8 9 8 7 6 5 5 5 5 6 8 9 7 7 8 7 5 6 6 6 8 8 8 8 8 9 9 9 9 9 9 9 10 10 10 9 9 9 9 9 9 9 9 10 10 10
0 1 4 8 9 7 7 5 5 7 8 7 7 8 8 7 7 7 6 5 5 6 6 7 8 8 8 8 8 8 8 8 9 9 9 9 9 9 10 10 9 9 9 9 9 10 10 11 11
2 3 7 8 8 7 6 5 6 6 7 6 4 6 7 7 6 5 5 5 5 5 5 6 7 7 7 8 8 8 8 8 8 9 9 9 9 9 9 9 9 10 10 10 10 10 10 11 11
2 3 7 7 7 6 5 5 5 5 6 4 3 5 6 7 6 5 5 4 4 5 5 5 5 6 6 8 9 8 8 8 8 8 8 7 7 8 8 9 10 9 10 10 10 11 11 11 11
1 3 6 6 5 6 5 5 5 4 6 5 5 6 7 9 7 6 5 4 4 4 4 5 5 6 6 6 7 6 7 6 5 6 5 3 6 7 7 11 10 10 10 10 10 10 10 9 10
2 5 7 5 5 6 5 5 5 5 6 7 8 7 8 9 7 6 5 4 4 5 4 4 4 5 5 5 5 4 5 5 5 5 5 5 6 6 7 10 10 10 10 10 9 8 7 4 6
4 6 6 5 5 6 6 5 4 5 5 6 7 9 8 8 6 4 4 4 4 4 4 4 4 4 4 4 4 4 4 4 5 5 5 5 5 5 6 6 7 7 6 7 7 5 6 7 7
6 7 5 5 5 5 5 5 5 4 4 5 6 8 8 7 5 4 3 4 4 4 3 3 3 4 4 4 4 3 4 4 4 5 5 5 5 4 5 5 6 5 5 5 5 6 7 8 8
7 5 5 5 5 5 6 5 5 5 4 6 7 7 7 6 4 4 3 3 4 4 3 4 3 3 4 4 3 3 4 4 5 5 4 5 4 4 5 5 5 5 5 5 5 6 7 7 8
6 6 5 5 5 5 6 5 4 4 5 7 7 7 6 5 3 3 3 3 3 3 4 4 3 3 3 3 3 4 4 4 4 4 4 5 4 4 4 5 4 5 5 5 5 6 6 6 6
6 5 5 4 4 3 3 4 3 4 6 7 6 6 5 4 3 3 3 3 3 3 4 4 3 3 3 3 4 4 3 3 4 3 3 4 4 4 4 4 4 4 5 5 5 7 6 5 6
3 3 3 4 2 2 2 3 4 5 6 6 5 5 4 3 2 2 2 2 3 3 3 4 3 3 3 3 3 3 3 3 3 3 3 3 4 4 4 4 4 4 4 5 4 4 5 5 5
2 2 3 3 2 2 1 2 4 4 5 5 5 5 4 4 3 2 2 2 3 3 3 4 3 3 3 3 3 3 3 3 2 3 3 3 4 4 4 3 3 4 4 4 4 4 4 5 5
2 2 2 2 2 1 1 1 2 4 4 4 4 4 4 4 3 3 3 3 3 3 4 4 4 3 4 3 2 3 3 2 2 2 3 3 3 3 3 3 4 4 3 4 4 5 4 4 4
1 1 1 2 1 1 0 1 1 2 4 4 4 4 3 3 3 3 4 4 4 4 4 4 4 4 3 2 2 2 2 2 2 2 3 2 2 3 3 2 3 2 3 3 4 4 5 3 3
2 1 1 2 2 0 1 1 2 2 2 3 3 4 4 4 4 5 4 5 4 4 4 4 4 4 3 2 1 2 2 1 2 2 2 2 2 2 2 2 2 3 2 3 3 2 2 2 1
1 1 1 0 0 2 1 2 3 3 2 1 2 3 4 4 5 6 6 6 5 4 4 4 4 4 3 3 2 2 2 2 2 2 2 2 2 3 2 2 2 2 2 2 2 2 1 1 1
1 1 2 2 3 1 2 1 2 2 2 1 2 3 3 4 5 5 6 6 6 5 4 4 4 3 3 3 2 2 1 1 2 2 2 3 3 3 2 2 2 2 2 2 2 1 1 0 1
1 0 1 2 2 2 1 2 2 2 2 1 1 3 4 5 5 5 5 5 5 5 5 4 4 3 3 2 2 2 2 2 2 2 3 3 3 3 3 2 2 2 2 2 1 1 0 1 1
2 3 3 4 3 2 1 2 1 2 3 2 0 3 5 5 5 5 4 5 5 5 5 4 4 3 3 3 3 2 2 2 3 3 3 3 3 2 3 2 2 2 1 2 2 1 1 0 1
2 4 3 3 3 0 1 2 1 4 3 3 1 2 4 5 5 5 5 5 5 5 5 5 5 4 4 4 4 3 3 3 3 3 3 2 3 2 2 2 2 2 2 2 2 1 1 1 1
2 3 3 2 1 0 2 1 2 3 3 2 0 2 4 5 5 5 5 5 5 5 5 6 6 5 5 5 4 3 3 2 2 2 2 2 2 2 3 3 3 3 2 2 2 1 1 1 1
3 2 3 3 2 3 1 1 2 2 2 2 2 3 3 4 4 4 4 5 5 5 6 6 6 6 6 5 4 4 3 3 2 3 2 2 2 2 3 3 3 3 3 2 2 1 1 1 1
2 1 3 3 3 2 2 2 1 2 2 1 2 2 2 3 3 3 3 4 5 5 5 6 6 6 6 5 5 4 4 3 3 3 3 3 3 3 3 3 3 3 3 3 2 1 1 1 2
3 3 3 3 3 3 2 0 2 1 1 0 1 2 2 2 3 3 3 3 4 4 5 5 5 5 5 6 6 5 4 4 4 3 3 3 3 4 4 3 3 3 3 3 2 1 1 1 1
3 4 4 4 3 4 4 1 3 1 0 0 1 2 2 2 3 3 3 3 4 4 4 5 5 5 5 6 6 5 5 5 4 4 4 4 4 4 4 4 3 3 3 2 2 2 1 1 0
Wind_Direction
194 205 247 246 187 91 72 66 63 68 66 60 57 63 67 53 45 74 78 67 66 72 75 82 69 70 68 68 69 72 72 72 71 71 73 74 75 73 78 82 81 80 81 80 76 75 76 78 79
297 251 244 257 94 96 77 69 68 61 81 89 68 66 72 68 64 84 88 78 80 77 70 69 71 72 71 73 73 72 74 74 71 70 71 70 68 66 72 78 80 80 80 81 77 73 72 75 79
178 260 294 65 67 69 83 74 79 81 73 68 78 61 58 72 77 86 87 97 90 80 75 76 69 71 74 74 73 72 73 74 71 70 69 69 66 63 65 72 78 81 81 77 74 73 71 73 77
243 215 126 88 83 69 77 83 88 97 77 60 85 84 78 68 81 90 98 96 92 85 83 85 73 74 76 75 72 73 74 73 71 71 70 69 66 62 63 69 75 79 82 79 74 75 73 73 73
253 227 107 95 84 81 80 79 76 80 77 70 81 95 94 85 92 101 103 94 90 84 81 88 78 72 72 73 73 72 74 75 71 69 68 67 64 61 64 70 76 77 80 82 80 76 76 73 71
240 125 108 96 94 93 86 78 83 82 89 87 92 99 95 105 107 107 106 93 86 87 86 92 94 75 67 68 71 71 71 75 75 69 67 62 61 59 63 67 71 75 77 78 79 77 76 73 71
59 84 93 100 104 96 85 72 70 85 86 79 93 102 113 119 111 120 114 103 94 94 94 86 92 97 95 78 68 68 69 73 75 72 68 63 63 61 60 67 70 73 75 76 78 78 77 75 73
27 106 105 98 100 91 90 87 72 67 82 87 95 107 122 130 130 133 123 114 103 100 99 93 89 84 84 91 78 68 67 70 74 73 69 71 83 78 69 74 76 76 76 77 80 81 80 78 75
326 110 99 92 95 102 109 102 89 88 99 94 84 86 107 131 139 137 130 121 111 108 103 98 91 86 78 76 83 82 84 80 96 96 89 84 74 75 84 73 78 82 83 81 80 80 81 88 85
61 90 84 79 89 110 112 103 108 111 101 104 107 104 124 142 146 141 133 121 116 115 110 103 91 90 87 77 77 71 75 75 71 67 67 62 66 69 79 92 85 87 90 90 82 87 99 93 89
77 86 94 94 98 112 112 106 106 113 96 103 121 132 141 146 146 141 127 111 103 111 109 107 97 92 83 81 72 67 75 78 75 68 71 69 73 84 85 95 102 97 98 86 94 99 80 76 73
95 84 90 99 108 112 112 110 103 86 84 95 113 134 146 149 143 141 124 108 113 118 114 108 98 97 89 80 74 71 81 78 75 70 66 68 67 72 77 79 79 81 80 75 78 76 78 75 74
97 90 85 101 110 107 106 101 98 88 102 112 122 135 144 143 139 134 123 119 117 120 126 116 109 91 89 81 79 84 83 77 80 72 73 74 73 73 79 81 78 78 82 86 81 80 78 75 70
98 102 101 106 113 115 110 100 95 102 125 127 131 133 133 129 134 136 133 125 116 116 113 116 119 100 92 99 95 82 83 86 73 73 71 71 73 77 81 86 80 75 74 77 82 81 79 74 72
123 117 111 105 113 127 133 100 91 123 141 137 137 131 126 131 137 140 135 130 117 113 116 115 112 107 97 91 88 89 85 81 77 72 62 72 75 76 79 79 81 78 84 86 82 86 83 80 77
151 145 116 101 108 155 212 93 95 141 157 148 142 135 138 144 151 139 138 135 124 129 124 121 128 118 104 97 100 95 83 71 76 77 68 70 79 79 82 81 83 84 88 92 91 88 88 81 75
161 124 103 110 95 158 196 101 119 156 172 167 163 157 154 151 156 149 153 154 145 145 136 130 124 119 115 112 109 90 88 81 79 84 81 76 80 83 92 85 89 97 95 91 93 90 88 87 83
124 111 97 85 97 174 162 95 132 170 188 186 181 175 173 172 170 168 165 159 157 156 145 133 130 129 119 122 121 112 98 92 82 81 80 69 77 82 90 102 98 100 102 100 102 104 99 91 93
122 139 87 65 79 199 25 27 123 172 192 197 192 189 195 189 170 163 168 163 163 162 160 148 150 140 132 124 126 122 117 106 93 80 79 88 91 92 96 102 97 97 102 109 117 117 115 104 103
193 204 117 104 88 278 7 19 77 133 189 207 202 191 191 185 175 166 178 173 173 166 166 157 154 153 139 128 128 116 112 100 93 92 92 94 93 98 106 112 112 113 116 128 126 136 127 113 93
209 274 287 272 219 198 262 115 102 113 127 164 209 206 192 189 190 180 182 175 173 173 172 167 164 156 149 143 137 140 133 144 128 113 98 85 87 91 95 102 117 127 143 138 140 142 142 118 80
239 317 257 237 248 266 288 300 74 85 101 129 203 204 198 194 198 189 187 184 182 179 176 173 163 155 152 154 159 162 170 137 116 115 112 113 107 104 102 109 119 128 127 140 150 131 91 1 52
337 13 224 240 260 266 268 275 73 73 40 14 218 202 198 197 196 194 191 189 185 176 177 176 166 162 162 166 157 179 164 147 142 138 130 129 114 108 109 115 122 121 127 139 126 112 10 349 351
158 180 179 207 235 248 337 284 47 50 348 344 230 188 188 187 187 187 184 182 178 173 173 177 177 171 173 185 183 185 167 165 157 156 145 142 130 122 114 117 121 118 120 129 123 129 144 347 359
214 243 225 208 207 186 69 272 34 32 357 339 306 202 178 171 175 179 181 183 179 178 181 185 186 184 186 193 195 191 186 181 174 171 164 164 145 140 135 138 134 121 121 113 118 130 123 124 92
220 268 287 296 286 332 200 248 79 31 354 344 3 156 155 161 172 182 190 188 181 185 188 191 193 192 192 200 200 200 186 188 168 180 179 179 162 150 140 133 126 122 119 119 121 115 111 99 93
215 235 298 286 280 272 221 172 146 73 53 60 100 126 145 157 170 181 187 189 185 190 194 195 194 194 197 201 200 199 192 190 182 190 189 184 178 157 148 141 139 133 130 122 121 110 103 95 71
311 231 232 249 266 257 245 260 334 48 41 56 123 142 154 158 173 177 181 185 185 190 195 195 197 199 199 202 199 194 196 196 202 207 201 196 185 174 168 167 158 152 144 135 127 126 94 120 101
175 205 235 244 268 279 276 63 59 24 22 25 130 146 162 171 187 189 185 186 185 185 190 195 202 204 202 205 201 194 194 198 199 205 206 204 193 186 186 185 179 170 162 150 146 153 151 146 134
249 249 243 251 246 260 273 276 106 8 48 140 148 160 177 183 190 192 192 191 191 196 197 201 207 208 206 207 205 200 195 199 201 200 202 202 197 195 196 189 189 183 180 173 164 163 166 147 134
Height
1524 1523 1523 1525 1523 1523 1529 1531 1528 1529 1531 1535 1535 1534 1535 1536 1539 1547 1548 1545 1545 1545 1544 1543 1542 1542 1542 1542 1541 1541 1540 1540 1540 1540 1539 1539 1539 1538 1538 1538 1538 1538 1538 1538 1539 1539 1539 1539 1539
1524 1524 1526 1525 1521 1527 1534 1531 1531 1533 1535 1536 1537 1537 1537 1541 1544 1546 1546 1546 1546 1546 1546 1545 1543 1543 1543 1543 1543 1542 1542 1542 1541 1541 1541 1540 1540 1540 1540 1540 1540 1540 1540 1540 1540 1540 1540 1540 1540
1525 1525 1527 1523 1524 1529 1535 1532 1533 1536 1537 1537 1538 1539 1541 1544 1546 1547 1548 1547 1548 1547 1547 1546 1545 1545 1544 1544 1544 1544 1543 1543 1543 1542 1542 1542 1542 1541 1541 1541 1541 1541 1541 1541 1541 1541 1541 1541 1541
1526 1528 1527 1524 1530 1532 1532 1533 1535 1537 1538 1539 1539 1541 1544 1547 1548 1549 1548 1549 1549 1549 1548 1548 1547 1546 1546 1546 1546 1545 1545 1545 1544 1544 1544 1543 1543 1543 1543 1543 1543 1543 1543 1543 1543 1543 1543 1542 1543
1527 1527 1525 1529 1532 1534 1534 1536 1536 1536 1538 1540 1540 1543 1547 1549 1549 1550 1550 1550 1551 1550 1550 1550 1548 1548 1548 1547 1547 1547 1547 1546 1546 1546 1545 1545 1544 1544 1544 1544 1544 1544 1544 1544 1544 1544 1544 1544 1544
1529 1526 1527 1533 1536 1535 1536 1538 1538 1538 1540 1542 1543 1544 1549 1550 1551 1551 1551 1552 1552 1552 1552 1551 1550 1550 1549 1549 1549 1549 1548 1548 1548 1547 1547 1546 1546 1546 1546 1545 1545 1545 1545 1545 1545 1545 1545 1545 1545
1530 1526 1530 1533 1536 1537 1538 1540 1539 1539 1541 1544 1545 1545 1549 1551 1552 1552 1553 1553 1553 1553 1553 1553 1553 1552 1551 1551 1551 1550 1550 1550 1549 1549 1549 1548 1548 1548 1547 1547 1547 1546 1546 1546 1546 1546 1546 1546 1546
1530 1529 1531 1534 1537 1539 1540 1541 1542 1542 1544 1546 1546 1546 1550 1552 1552 1553 1554 1554 1555 1555 1555 1555 1555 1555 1554 1554 1552 1552 1552 1551 1551 1551 1550 1550 1550 1549 1549 1548 1548 1548 1548 1547 1547 1547 1548 1548 1548
1532 1531 1534 1536 1537 1540 1541 1542 1544 1545 1545 1547 1548 1549 1551 1552 1553 1554 1555 1556 1556 1556 1556 1556 1556 1556 1556 1555 1554 1554 1554 1553 1553 1553 1552 1552 1552 1552 1551 1550 1549 1549 1549 1549 1549 1549 1549 1549 1549
1532 1532 1536 1537 1537 1539 1541 1542 1544 1545 1546 1547 1549 1551 1551 1553 1554 1555 1556 1556 1557 1557 1558 1558 1558 1558 1557 1557 1556 1556 1556 1555 1555 1555 1554 1554 1554 1553 1552 1552 1551 1551 1551 1551 1551 1551 1551 1551 1551
1534 1535 1537 1539 1540 1541 1542 1543 1545 1545 1545 1548 1549 1551 1552 1554 1555 1556 1557 1557 1558 1558 1558 1559 1559 1559 1559 1558 1558 1558 1558 1557 1557 1557 1556 1556 1555 1555 1555 1554 1554 1553 1553 1553 1553 1553 1553 1553 1553
1537 1538 1539 1541 1542 1543 1543 1544 1546 1547 1549 1550 1550 1551 1553 1554 1555 1557 1557 1558 1558 1559 1559 1560 1560 1560 1560 1560 1559 1559 1559 1559 1559 1558 1558 1558 1557 1557 1557 1556 1556 1555 1555 1554 1555 1554 1554 1554 1555
1538 1540 1542 1543 1544 1544 1545 1546 1547 1549 1550 1551 1552 1553 1554 1555 1556 1558 1558 1559 1559 1560 1560 1560 1560 1561 1561 1560 1560 1561 1561 1561 1561 1559 1560 1560 1559 1559 1559 1558 1557 1558 1557 1556 1556 1556 1556 1556 1556
1541 1542 1543 1543 1544 1545 1545 1547 1548 1550 1551 1552 1553 1554 1555 1556 1557 1558 1559 1559 1560 1560 1561 1561 1561 1561 1562 1562 1562 1562 1562 1561 1562 1561 1561 1561 1561 1561 1560 1560 1559 1559 1559 1558 1558 1558 1557 1557 1557
1542 1541 1542 1544 1544 1545 1546 1547 1549 1551 1552 1552 1553 1555 1556 1557 1557 1558 1559 1560 1560 1561 1561 1562 1562 1562 1562 1562 1562 1562 1563 1563 1563 1563 1563 1563 1562 1562 1562 1562 1561 1560 1560 1560 1559 1559 1559 1558 1558
1540 1540 1543 1544 1544 1545 1546 1549 1550 1551 1552 1552 1553 1555 1556 1557 1557 1558 1559 1560 1561 1561 1562 1562 1562 1563 1563 1563 1563 1564 1564 1564 1564 1564 1564 1564 1564 1563 1563 1563 1562 1561 1561 1561 1561 1561 1560 1560 1560
1540 1542 1544 1544 1544 1544 1544 1547 1549 1551 1551 1552 1553 1554 1556 1557 1558 1558 1559 1560 1560 1561 1562 1562 1563 1563 1563 1563 1564 1564 1564 1564 1565 1565 1565 1565 1565 1564 1564 1564 1563 1563 1562 1562 1562 1562 1562 1561 1561
1543 1542 1544 1544 1543 1543 1544 1545 1547 1550 1551 1551 1552 1553 1555 1556 1557 1558 1559 1559 1560 1561 1562 1562 1563 1563 1564 1564 1565 1564 1564 1565 1565 1565 1565 1565 1565 1565 1565 1565 1564 1564 1564 1563 1563 1563 1563 1562 1563
1540 1541 1543 1543 1543 1544 1543 1544 1545 1548 1549 1550 1551 1552 1554 1555 1557 1557 1558 1559 1560 1561 1562 1562 1563 1563 1564 1564 1565 1565 1565 1565 1565 1565 1565 1565 1566 1566 1566 1566 1566 1565 1565 1565 1565 1564 1564 1564 1564
1541 1542 1543 1543 1543 1543 1543 1544 1544 1547 1548 1549 1550 1551 1552 1554 1555 1556 1557 1558 1560 1561 1561 1562 1563 1563 1564 1564 1565 1565 1565 1565 1565 1565 1565 1566 1566 1566 1566 1566 1566 1566 1565 1565 1565 1565 1565 1565 1565
1542 1543 1543 1544 1543 1542 1543 1543 1543 1545 1547 1549 1550 1551 1551 1553 1554 1556 1557 1558 1559 1560 1561 1562 1563 1563 1564 1564 1564 1564 1565 1565 1566 1566 1566 1566 1566 1566 1567 1567 1567 1566 1566 1566 1566 1566 1566 1566 1566
1544 1542 1542 1544 1543 1544 1544 1548 1542 1542 1544 1547 1548 1549 1550 1552 1553 1555 1556 1557 1558 1559 1560 1562 1562 1563 1563 1564 1564 1565 1565 1566 1566 1566 1566 1566 1566 1566 1566 1567 1567 1567 1567 1567 1567 1566 1566 1566 1566
1543 1543 1542 1542 1542 1543 1542 1544 1542 1540 1543 1543 1545 1547 1549 1551 1552 1554 1555 1556 1558 1559 1560 1561 1562 1562 1563 1563 1564 1565 1565 1566 1566 1566 1566 1567 1567 1567 1567 1567 1567 1567 1567 1567 1567 1567 1567 1567 1566
1543 1543 1543 1541 1541 1549 1544 1546 1546 1541 1542 1541 1543 1545 1547 1549 1551 1553 1554 1555 1557 1558 1559 1560 1561 1562 1562 1563 1564 1564 1565 1565 1566 1566 1567 1567 1567 1567 1567 1567 1567 1567 1567 1567 1567 1567 1567 1566 1566
1542 1543 1547 1548 1549 1548 1543 1546 1546 1540 1541 1542 1543 1544 1546 1548 1550 1551 1553 1554 1555 1556 1557 1559 1560 1561 1562 1562 1563 1564 1565 1565 1566 1566 1567 1567 1567 1567 1567 1567 1567 1567 1567 1567 1567 1567 1567 1567 1566
1541 1542 1549 1554 1552 1546 1543 1546 1541 1541 1542 1542 1543 1544 1545 1547 1549 1550 1552 1553 1554 1555 1556 1558 1559 1560 1561 1562 1563 1564 1564 1565 1565 1566 1566 1567 1567 1567 1567 1567 1567 1567 1567 1567 1567 1567 1567 1567 1566
1541 1542 1541 1543 1545 1548 1542 1540 1538 1540 1541 1541 1542 1543 1545 1547 1548 1550 1551 1552 1553 1554 1555 1556 1558 1559 1560 1561 1562 1563 1564 1564 1565 1565 1566 1566 1567 1567 1567 1567 1567 1567 1567 1567 1567 1567 1567 1566 1566
1541 1540 1542 1544 1551 1552 1546 1542 1541 1538 1539 1541 1542 1543 1545 1546 1548 1549 1550 1551 1552 1553 1554 1555 1557 1558 1559 1560 1561 1562 1563 1563 1564 1565 1565 1566 1566 1566 1567 1567 1567 1567 1567 1567 1567 1567 1566 1566 1566
1543 1544 1541 1541 1543 1549 1552 1546 1536 1537 1539 1540 1542 1543 1544 1545 1547 1548 1549 1550 1551 1552 1553 1554 1555 1556 1557 1558 1559 1560 1561 1562 1563 1563 1564 1564 1565 1565 1566 1566 1567 1567 1567 1567 1566 1566 1566 1566 1566
1540 1540 1540 1545 1545 1544 1547 1546 1535 1538 1539 1540 1542 1543 1544 1545 1546 1547 1548 1549 1550 1550 1551 1552 1553 1554 1555 1556 1558 1559 1559 1560 1561 1562 1562 1563 1564 1564 1565 1565 1566 1566 1566 1566 1566 1566 1566 1566 1566